Location: Oklahoma City
(35.4680°N, 97.5160°W)
Time: 11:56:42
(UTC-06:00)

ISS - All Passes

Search period start: 09 February 2016 00:00
Search period end: 19 February 2016 00:00
Orbit: 399 x 408 km, 51.6° (Epoch: 09 February)

Date Brightness Start Highest point End Pass type
(mag) Time Alt. Az. Time Alt. Az. Time Alt. Az.
09 Feb - 00:14:10 10° WNW 00:17:08 34° SW 00:20:06 10° SSE night (unlit)
09 Feb - 15:15:23 10° SSW 15:18:12 28° SE 15:21:03 10° ENE daylight
09 Feb - 16:51:55 10° W 16:54:38 24° NNW 16:57:22 10° NNE daylight
09 Feb - 21:46:05 10° N 21:47:49 13° NNE 21:49:31 10° ENE night (unlit)
09 Feb - 23:21:22 10° NW 23:24:37 78° SW 23:27:50 10° SE night (unlit)
10 Feb - 14:24:05 10° SSE 14:25:46 13° SE 14:27:28 10° E daylight
10 Feb - 15:58:47 10° WSW 16:01:55 45° NW 16:05:03 10° NE daylight
10 Feb - 22:28:50 10° NW 22:31:59 47° NE 22:35:07 10° ESE night (unlit)
11 Feb - 00:06:34 10° W 00:08:06 13° SW 00:09:38 10° SSW night (unlit)
11 Feb - 15:06:01 10° SW 15:09:16 83° SE 15:12:31 10° NE daylight
11 Feb - 16:44:26 10° WNW 16:46:05 13° NNW 16:47:45 10° N daylight
11 Feb - 21:36:29 10° NNW 21:39:15 25° NNE 21:42:00 10° E night (unlit)
11 Feb - 23:12:52 10° WNW 23:15:39 26° SW 23:18:25 10° S night (unlit)
12 Feb - 14:13:42 10° SSW 14:16:42 35° SE 14:19:42 10° ENE daylight
12 Feb - 15:50:41 10° W 15:53:13 21° NNW 15:55:45 10° NNE daylight
12 Feb - 20:44:22 10° N 20:46:24 15° NNE 20:48:26 10° ENE visible
12 Feb - 22:19:54 10° NW 22:23:06 60° SW 22:26:17 10° SE night (unlit)
13 Feb - 13:22:00 10° S 13:24:12 17° SE 13:26:23 10° E daylight
13 Feb - 14:57:22 10° WSW 15:00:25 36° NW 15:03:28 10° NNE daylight
13 Feb - 19:53:03 10° NNE 19:53:27 10° NNE 19:53:53 10° NNE visible
13 Feb - 21:27:15 10° NW 21:30:28 60° NE 21:33:39 10° ESE night (unlit)
14 Feb - 14:04:28 10° SW 14:07:42 77° NW 14:10:57 10° NE daylight
14 Feb - 15:43:24 10° NW 15:44:37 12° NNW 15:45:51 10° N daylight
14 Feb - 20:34:48 10° NNW 20:37:43 30° NE 20:40:37 10° E visible
14 Feb - 22:11:30 10° WNW 22:14:02 21° SW 22:16:33 10° S night (unlit)
15 Feb - 13:11:57 10° SSW 13:15:04 46° SE 13:18:12 10° ENE daylight
15 Feb - 14:49:21 10° WNW 14:51:41 18° NNW 14:54:00 10° NNE daylight
15 Feb - 19:42:34 10° NNW 19:44:52 18° NNE 19:47:10 10° ENE visible
15 Feb - 21:18:21 10° WNW 21:21:29 46° SW 21:24:35 10° SSE visible
16 Feb - 12:19:58 10° S 12:22:31 21° SE 12:25:03 10° ENE daylight
16 Feb - 13:55:53 10° W 13:58:49 30° NW 14:01:45 10° NNE daylight
16 Feb - 18:50:43 10° N 18:51:55 11° NNE 18:53:06 10° NE visible
16 Feb - 20:25:35 10° NW 20:28:50 77° NE 20:32:03 10° SE visible
17 Feb - 11:29:52 10° SE 11:30:01 10° SE 11:30:08 10° SE daylight
17 Feb - 13:02:49 10° WSW 13:06:02 60° NW 13:09:16 10° NE daylight
17 Feb - 14:42:30 10° NNW 14:43:02 10° NNW 14:43:34 10° NNW daylight
17 Feb - 19:33:02 10° NNW 19:36:05 36° NE 19:39:05 10° ESE visible
17 Feb - 21:10:06 10° W 21:12:17 17° SW 21:14:28 10° S visible
18 Feb - 12:10:08 10° SW 12:13:20 59° SE 12:16:33 10° NE daylight
18 Feb - 13:47:58 10° WNW 13:50:02 16° NNW 13:52:06 10° N daylight
18 Feb - 18:40:41 10° NNW 18:43:13 20° NNE 18:45:43 10° E visible
18 Feb - 20:16:43 10° WNW 20:19:43 36° SW 20:22:43 10° SSE visible
